MDSTMHTG

Guest
Details From MDST - Santiago Cibao Intl
To MHTG - Tegucigalpa Toncontin Intl
Flight Number -
Tags decoded
Created
Modified
Stats Distance 1,063 nm / 1,969 km
Max Altitude 0 ft / 0 m
Waypoints 8
Social Downloads 0
Likes 0
Share VATSIM

Download

Looking for another format? Having issues loading an existing format? Contact us
Advertisement - Login to hide

Notes

Requested: MDST POBIN ETBOD OBN BENET MLY CISNE PISIS TG001 MHTG Unmatched points: TG001

Route

MDST POBIN ETBOD OBN BENET MLY CISNE MHTG

ID Type Via Altitude Latitude Longitude Leg Dist Tot Dist Heading (true) Name
O MDST APT - 0 ft / 0 m 19.40609˚ -70.60469˚ - 0 nm - Santiago Cibao Intl
POBIN FIX - 0 ft / 0 m 19.39500˚ -70.95722˚ 19 nm 19 nm 268° / 268° -
ETBOD FIX - 0 ft / 0 m 18.51667˚ -71.88333˚ 74 nm 94 nm 225° / 225° -
OBN VOR - 0 ft / 0 m 18.43825˚ -72.27444˚ 22 nm 117 nm 258° / 258° OBLEON VOR-DME
BENET FIX - 0 ft / 0 m 18.24956˚ -74.66178˚ 136 nm 253 nm 266° / 265° -
MLY VOR - 0 ft / 0 m 17.93025˚ -76.77764˚ 122 nm 376 nm 261° / 261° MANLEY VOR-DME
CISNE FIX - 0 ft / 0 m 17.40000˚ -83.95000˚ 411 nm 787 nm 267° / 264° -
O MHTG APT - 0 ft / 0 m 14.06088˚ -87.21720˚ 275 nm 1063 nm 224° / 223° Tegucigalpa Toncontin Intl

Altitude Profile

Advertisement - Login to hide

Weather


0- 5 10 15 20 25 30 35+ Temperature / ° C

Clouds and Precipitation
Forecast for 2017-12-19 00:00 UTC. Updated 2 hours ago

Ground ~20,000 ft ~40,000 ft Winds

MDST

Details ICAO MDST (STI)
Name Santiago Cibao Intl
Region Dominican Republic
Timezone America/Santo_Domingo (UTC-4.0)
Stats Elevation 563 ft / 172 m (AMSL)
Location 19.406091° -70.604689°
Runways 1
Magnetic Variation 11.172° W

METAR

MDST 182000Z 16004KT 140V230 9999 SCT023 27/21 Q1017 RERA

Decode

TAF

Not found

Departure Runways

ID Width Length Bearing (true) Bearing (mag) Surface Threshold Offset Overrun Length
11 148 ft / 45 m 8,619 ft / 2,627 m 103.07° 114.24° Asphalt 0 ft / 0 m 200 ft / 61 m
29 148 ft / 45 m 8,619 ft / 2,627 m 283.08° 294.25° Asphalt 0 ft / 0 m 200 ft / 61 m

MHTG

Details ICAO MHTG (TGU)
Name Tegucigalpa Toncontin Intl
Region Honduras
Timezone America/Tegucigalpa (UTC-6.0)
Stats Elevation 3,294 ft / 1,004 m (AMSL)
Location 14.060883° -87.217197°
Runways 1
Magnetic Variation 0.661° W

METAR

MHTG 182000Z 36010KT 9999 3000SW VCSH FEW004 BKN022 20/18 Q1020 A3012 REDZ BECMG 6000 VCSH

Decode

TAF

TAF AMD MHTG 181950Z 1818/1918 01008KT 4000 RADZ FEW006 SCT020 BKN080 TX20/1821Z TN17/1912Z BECMG 1902/1904 6000 VCSH BECMG 1906/1908 00000KT 8000 FEW008 BKN020 BECMG 1915/1917 01008KT 9999 SCT024TCU SCT080

Decode

Destination Runways

ID Width Length Bearing (true) Bearing (mag) Surface Threshold Offset Overrun Length
02 148 ft / 45 m 6,140 ft / 1,872 m 18.87° 19.53° Asphalt 670 ft / 204 m 100 ft / 30 m
20 148 ft / 45 m 6,140 ft / 1,872 m 198.87° 199.53° Asphalt 0 ft / 0 m 200 ft / 61 m

Popular Alternatives